This demonstration page uses our WeatherBlox Daily Observations layout. Learn more.

41.55636, -103.73856

Hourly Observations for May 29, 2016

Temp ( °F °C ) Dew Point ( °F °C ) Humidity (%) Winds ( mph kmh ) Pressure ( in mb ) Visibility ( mi km ) Precip ( " mm )
12:53 am 00:53 Clear 49 9.4 44 6.7 83 83 E 6 9 30.01 1016 10 16.0934 0 0
1:53 am 01:53 Mostly Cloudy 49 9.4 44 6.7 83 83 SE 8 13 30 1016 10 16.0934 0 0
2:53 am 02:53 Clear 47 8.3 43 6.1 86 86 ESE 8 13 29.99 1016 10 16.0934 0 0
3:53 am 03:53 Clear 47 8.3 44 6.7 90 90 ESE 5 7 29.99 1016 10 16.0934 0 0
4:53 am 04:53 Clear 45 7.2 43 6.1 93 93 W 6 9 30.01 1016 10 16.0934 0 0
5:53 am 05:53 Sunny 45 7.2 42 5.6 90 90 NNW 3 6 30.02 1017 10 16.0934 0 0
6:53 am 06:53 Sunny 50 10 45 7.2 83 83 NW 7 11 30.03 1017 10 16.0934 0 0
7:53 am 07:53 Sunny 55 12.8 47 8.3 74 74 W 6 9 30.04 1017 10 16.0934 0 0
8:53 am 08:53 Sunny 60 15.6 49 9.4 67 67 VRB 3 6 30.05 1018 10 16.0934 0 0
9:53 am 09:53 Sunny 67 19.4 49 9.4 53 53 Calm 30.04 1017 10 16.0934 0 0
10:53 am 10:53 Sunny 69 20.6 50 10 51 51 SSE 5 7 30.03 1017 10 16.0934 0 0
11:53 am 11:53 Sunny 73 22.8 42 5.6 33 33 Calm 30.01 1016 10 16.0934 0 0
12:53 pm 12:53 Sunny 78 25.6 41 5 27 27 W 5 7 29.98 1015 10 16.0934 0 0
1:53 pm 13:53 Sunny 76 24.4 42 5.6 30 30 SSW 7 11 29.97 1015 10 16.0934 0 0
2:53 pm 14:53 Sunny 75 23.9 44 6.7 33 33 SSE 6 9 29.96 1015 10 16.0934 0 0
3:53 pm 15:53 Sunny 76 24.4 44 6.7 32 32 SSE 7 11 29.94 1014 10 16.0934 0 0
4:53 pm 16:53 Sunny 76 24.4 45 7.2 33 33 SE 5 7 29.93 1014 10 16.0934 0 0
5:53 pm 17:53 Sunny 74 23.3 41 5 31 31 SW 12 19 29.93 1013 10 16.0934 0 0
6:53 pm 18:53 Sunny 73 22.8 42 5.6 33 33 S 8 13 29.9 1013 10 16.0934 0 0
7:53 pm 19:53 Sunny 69 20.6 45 7.2 42 42 SE 3 6 29.92 1013 10 16.0934 0 0
8:53 pm 20:53 Clear 62 16.7 45 7.2 54 54 NNW 3 6 29.93 1014 10 16.0934 0 0
9:53 pm 21:53 Clear 60 15.6 43 6.1 53 53 N 5 7 29.91 1013 10 16.0934 0 0
10:53 pm 22:53 Clear 55 12.8 43 6.1 64 64 E 7 11 29.93 1014 10 16.0934 0 0
11:53 pm 23:53 Clear 59 15 44 6.7 58 58 SE 9 15 29.93 1013 10 16.0934 0 0

Powered by AerisWeather